Home   Weather   Vreden   Past weeks

Flag for Germany Past Weather in Vreden, North Rhine-Westphalia, Germany — Yesterday and Last 2 Weeks

Now
48 °F

Overcast.


Feels Like: 45 °F
Forecast: 42 / 48 °F
Wind: 7 mph from West

Location: Twenthe

Current Time: Dec 11, 2016 at 2:53:02 pm

Latest Report: Dec 11, 2016 at 2:00 pm


Visibility: 11 mi

Pressure: 30.10 "Hg

Humidity: 82%

Dew Point: 43 °F

Location of VredenLocation

Past Weather in Vreden — Graph

°F

Vreden Temperature Yesterday

Maximum temperature yesterday: 47 °F (at 11:00 pm)
Minimum temperature yesterday: 44 °F (at 8:00 am)
Average temperature yesterday: 45 °F

High & Low Weather Summary for the Past Weeks

 TemperatureHumidityPressure
High51 °F (Dec 9, 6:00 pm)100% (Nov 26, 1:00 pm)30.61 "Hg (Nov 26, 1:00 pm)
Low18 °F (Nov 29, 8:00 am)51% (Dec 5, 2:00 pm)29.86 "Hg (Dec 11, 4:00 am)
Average36 °F88%30.32 "Hg
* Reported Nov 26 1:00 pm — Dec 11 1:00 pm, Vreden, Weather by CustomWeather, © 2016

Note: Actual official high and low records may vary slightly from our data, if they occured in-between our weather recording intervals... More about our weather records

Advertising

Vreden Weather History for the Previous 24 Hours

Scroll right to see more
 ConditionsComfort  
Time TempWeatherWind HumidityBarometerVisibility
1:00 pm
Sun, Dec 11
47 °FOvercast.7 mph85%30.11 "Hg8 mi
12:00 pm48 °FOvercast.7 mph86%30.09 "Hg10 mi
11:00 am47 °FLow clouds.7 mph89%30.09 "Hg11 mi
10:00 am46 °FLow clouds.7 mph90%30.09 "Hg12 mi
9:00 am45 °FLow clouds.6 mph93%30.06 "Hg18 mi
8:00 am44 °FLow clouds.5 mph95%30.05 "Hg19 mi
7:00 am45 °FLow clouds.6 mph91%30.03 "Hg28 mi
6:00 am45 °FLow clouds.7 mph91%29.98 "Hg25 mi
5:00 am47 °FLow clouds.10 mph89%29.89 "Hg17 mi
4:00 am49 °FDrizzle. Low clouds.9 mph95%29.86 "Hg2 mi
3:00 am49 °FRain. Low clouds.9 mph95%29.88 "Hg3 mi
2:00 am48 °FRain. Low clouds.7 mph96%29.92 "Hg2 mi
1:00 am49 °FRain. Low clouds.6 mph96%29.96 "Hg2 mi
12:00 am48 °FLight rain. Low clouds.6 mph98%30.00 "Hg2 mi
11:00 pm
Sat, Dec 10
47 °FRain. Low clouds.5 mph98%30.04 "Hg1 mi
10:00 pm46 °FLight rain. Low clouds.3 mph99%30.07 "Hg1 mi
9:00 pm46 °FRain showers. Low clouds.3 mph98%30.10 "Hg1 mi
8:00 pm45 °FLow clouds.5 mph99%30.12 "Hg2 mi
7:00 pm45 °FDrizzle. Low clouds.5 mph98%30.14 "Hg1 mi
6:00 pm45 °FRain. Low clouds.5 mph98%30.16 "Hg1 mi
5:00 pm45 °FDrizzle. Low clouds.5 mph98%30.17 "Hg1 mi
4:00 pm45 °FLight rain. Low clouds.5 mph98%30.17 "Hg2 mi
2:00 pm44 °FLight rain. Low clouds.6 mph97%30.19 "Hg1 mi
Weather by CustomWeather, © 2016

See weather overviewHow to use our weather pages